Location: Bruderhein
(53.8035°N, 112.9265°W)
Time: 02:02:02
(UTC+00:00)

KKS-1 - Pass Details

Date: 04 April 2023
Orbit: 633 x 644 km, 98.2° (Epoch: 31 May)

Event Time Altitude Azimuth Distance (km) Brightness Sun altitude
Rises 07:11:46 0° 10° (N) 2,946 ? -30.4°
Reaches altitude 10° 07:14:06 10° 2° (N) 2,032 ? -30.4°
Enters shadow 07:17:19 33° 320° (NW) 1,077 ? -30.5°
